COSMOS 90

Satellite information

Favourite Embed

Satellite Type and Status

PAYLOADIN ORBIT

Key statistics

Satellite COSMOS 90 at a glance.

Uptime

22008

Days in orbit

Revolutions

≈ 12.3

Per day

Orbit

LEO

Low Earth Orbit

Inclination

56.1

Latest

Satellite identification and parameters

Extended collection of information and parameters for COSMOS 90.

Object identification

Identified? True

Debris? False

Object name: COSMOS 90

International designator: 1965-073E

Object number (NORAD): 1588

Object ID (CCSDS): 1588

Country: COMMONWEALTH OF INDEPENDENT STATES (CIS)

Current information (Y/N): Y

RCS size: MEDIUM

Orbital parameters

Period: 116.638 minutes

Inclination: 56.0588 deg

SMA: 7907.754 km

Apoapsis: 1651.968 km

Periapsis: 1407.27 km

RAAN: 25.7976 deg

Eccentricy: 0.01547204

Argument of periapsis: 201.4771 deg

Mean anomaly: 325.8593 deg

Mean motion: 12.3459085 rev/day

Mean motion (dot): -0.00000085 rev/day2

B* drag term: 0.00004500084 1/REarth

Two-line elements (TLE)

Creation date: Dec. 18, 2025, 8:02 p.m.

Reference frame: TEME

Reference center: EARTH

Epoch: Dec. 18, 2025, 1:44 p.m. UTC

TLE line 0: 0 COSMOS 90

TLE line 1: 1 01588U 65073E 25352.57249826 -.00000085 00000-0 45001-4 0 9991

TLE line 2: 2 01588 56.0588 25.7976 0154720 201.4771 325.8593 12.34590850716683

Live tracking on map

Real-time ground track for satellite COSMOS 90.

In-orbit conjunctions

There are no conjunctions computed for COSMOS 90, at the moment. Check back to stay up to date, as we update our databases every day.

Go to all conjunctions

Associated space launch

The Strela-1 satellites were prototype store-dump communications satellites for tactical communication.

COSMOS 90 was lifted into orbit during the mission ‘Kosmos 65S3 | Strela-1 25 to 29’, on board a Kosmos 65S3 space rocket.

The launch took place on Sept. 18, 1965, 7:59 a.m. from 41/15.

For more information about the launch, click the button.

Launch to space Kosmos 65S3 | Strela-1 25 to 29
Kosmos 65S3 | Strela-1 25 to 29

Agency: N/A

Status: Launch Successful

Launch date: Sept. 18, 1965, 7:59 a.m. UTC

Rocket: Kosmos 65S3

Launch pad: 41/15

Location: Baikonur Cosmodrome, Republic of Kazakhstan

...

Latest news about this satellite

There are no fresh news available about this satellite. Check back as we update our databases every day.


Newsletter sign-up

Weekly statistics, charts and insights to help you stay on top of the space industry.